Station 45196 - Rocky River, OH Image indicating link to RSS feed of recent meteorological observations for station 45196


Conditions at 45196 as of
(12:40 pm EDT)
1640 GMT on 05/28/2024:
     

Click on the graph icon in the table below to see a time series plot of the last five days of that observation.

5-day plot - Wave Height Wave Height (WVHT): 2.0 ft
5-day plot - Dominant Wave Period Dominant Wave Period (DPD): 4 sec
5-day plot - Mean Wave Direction Mean Wave Direction (MWD):WNW ( 282 deg true )
5-day plot - Atmospheric Pressure Atmospheric Pressure (PRES):29.87 in
5-day plot - Air Temperature Air Temperature (ATMP): 62.1 °F
5-day plot - Water Temperature Water Temperature (WTMP): 63.0 °F
5-day plot - Dew Point Dew Point (DEWP): 57.4 °F
Previous observations
TIME
(EDT)
5-day plot - Wind Direction
WDIR
 
5-day plot - Wind Speed
WSPD
kts
5-day plot - Wind Gust
GST
kts
5-day plot - Wave Height
WVHT
ft
5-day plot - Dominant Wave Period
DPD
sec
5-day plot - Average Wave Period
APD
sec
5-day plot - Mean Wave Direction
MWD
 
5-day plot - Atmospheric Pressure
PRES
in
5-day plot - Pressure Tendency
PTDY
in
5-day plot - Air Temperature
ATMP
°F
5-day plot - Water Temperature
WTMP
°F
5-day plot - Dew Point
DEWP
°F
5-day plot - Salinity
SAL
psu
5-day plot - Visibility
VIS
nmi
5-day plot - Tide (above MLLW)
TIDE
ft
2024-05-28 12:20 pm--- 2.0 4-WNW29.87- 62.6 63.0 57.4---
2024-05-28 11:50 am--- 2.3 4- W29.87- 62.2 62.8 57.6---
2024-05-28 11:40 am--- 2.0 4- W29.87- 62.2 62.8 57.4---
2024-05-28 11:30 am--- 2.3 4-WNW29.86- 62.2 62.8 57.2---
2024-05-28 11:20 am--- 2.3 4-WNW29.86- 62.2 62.8 57.0---
2024-05-28 11:00 am--- 2.3 4-WNW29.86- 61.5 62.6 57.2---
2024-05-28 10:50 am--- 2.3 4-WNW29.85- 61.3 62.4 57.0---
2024-05-28 10:30 am--- 2.0 4- W29.85- 61.2 62.4 57.2---
2024-05-28 10:20 am--- 2.0 4-WNW29.85- 61.5 62.4 57.2---
2024-05-28 10:10 am--- 2.0 4- W29.85- 61.9 62.4 57.2---
2024-05-28 10:00 am--- 2.0 4- W29.84+0.04 61.7 62.4 57.4---
2024-05-28 09:30 am--- 2.0 4-WNW29.84- 61.7 62.4 57.2---
2024-05-28 09:20 am--- 2.3 4- W29.84- 61.5 62.6 57.6---
2024-05-28 09:10 am--- 2.3 4-WNW29.83- 61.2 62.6 57.2---
2024-05-28 09:00 am--- 2.0 4-WNW29.83- 61.0 62.4 57.0---
2024-05-28 08:50 am--- 2.3 5-WNW29.83- 60.6 62.4 56.8---
2024-05-28 08:30 am--- 2.3 5-WNW29.83- 60.3 62.2 57.4---
2024-05-28 08:20 am--- 2.3 5-WNW29.83- 60.1 62.1 57.4---
2024-05-28 07:50 am--- 2.6 5-WNW29.81- 59.4 61.7 57.0---
2024-05-28 07:40 am--- 3.3 5-WNW29.81- 59.2 61.7 57.2---
2024-05-28 07:20 am--- 3.3 5-WNW29.80- 59.5 61.7 57.6---
2024-05-28 07:10 am--- 3.3 5-WNW29.80- 59.9 61.5 57.7---
2024-05-28 07:00 am--- 3.3 5-WNW29.80+0.05 60.4 61.5 57.9---
2024-05-28 06:40 am--- 3.3 5-WNW29.79- 60.1 61.3 57.9---
2024-05-28 06:10 am--- 3.3 5-WNW29.78- 60.1 60.8 57.6---
2024-05-28 05:40 am--- 3.0 5-WNW29.77- 60.4 60.8 56.1---
2024-05-28 05:30 am--- 3.0 5-WNW29.77- 60.6 60.8 55.9---
2024-05-28 05:20 am--- 3.0 5- W29.76- 60.6 60.8 55.8---
2024-05-28 05:00 am--- 3.3 5-WNW29.76+0.02 60.8 60.6 57.0---
2024-05-28 04:50 am--- 3.3 5-WNW29.76- 60.6 60.6 58.1---
2024-05-28 04:40 am--- 3.3 5-WNW29.80- 60.6 60.4 57.9---
2024-05-28 04:30 am--- 3.3 5-WNW29.80- 60.4 60.4 57.9---
2024-05-28 04:20 am--- 3.3 5-WNW29.77- 59.7 60.4 57.6---
2024-05-28 04:00 am--- 3.3 5-WNW29.75- 61.5 60.3 56.3---
2024-05-28 03:50 am--- 3.3 5-WNW29.74- 61.7 60.3 56.3---
2024-05-28 03:20 am--- 3.3 5-WNW29.74- 61.7 60.3 55.8---
2024-05-28 03:10 am--- 3.3 5-WNW29.74- 61.3 60.3 55.6---
2024-05-28 03:00 am--- 3.6 6-WNW29.74+0.01 61.0 60.3 55.4---
2024-05-28 02:50 am--- 3.6 5-WNW29.74- 61.5 60.3 55.8---
2024-05-28 02:30 am--- 3.3 5-WNW29.73- 62.4 60.3 56.1---
2024-05-28 02:10 am--- 3.3 5-WNW29.74- 62.6 60.3 55.9---
2024-05-28 02:00 am--- 3.3 5-WNW29.74+0.02 62.8 60.3 56.1---
2024-05-28 01:50 am--- 3.3 5-WNW29.74- 62.8 60.4 56.5---
2024-05-28 12:50 am--- 3.3 5-WNW29.73- 63.5 60.4 56.5---
2024-05-28 12:40 am--- 3.3 5-WNW29.73- 63.5 60.4 56.3---
2024-05-28 12:30 am--- 3.3 5-WNW29.73- 63.3 60.4 56.3---
2024-05-28 12:20 am--- 3.6 5-WNW29.73- 63.3 60.4 56.1---
2024-05-28 12:10 am--- 3.0 5-WNW29.72- 63.7 60.4 56.1---
2024-05-28 12:00 am--- 3.3 6-WNW29.72- 63.5 60.4 56.3---
2024-05-27 11:50 pm--- 3.3 5-WNW29.72- 63.7 60.4 56.3---
2024-05-27 11:40 pm--- 3.3 5-WNW29.72- 63.7 60.4 56.3---
2024-05-27 11:30 pm--- 3.3 5-WNW29.73- 63.5 60.4 56.3---
2024-05-27 11:10 pm--- 3.3 5-WNW29.72- 63.5 60.6 56.3---
2024-05-27 11:00 pm--- 3.3 5-WNW29.72+0.04 63.7 60.6 56.3---
2024-05-27 10:50 pm--- 3.3 5-WNW29.72- 63.7 60.6 56.3---
2024-05-27 10:40 pm--- 3.3 5-WNW29.72- 63.7 60.6 56.3---
2024-05-27 10:30 pm--- 3.3 5-WNW29.72- 63.7 60.6 56.3---
2024-05-27 10:10 pm--- 3.3 6-WNW29.71- 63.7 60.8 56.5---
2024-05-27 10:00 pm--- 3.3 6-WNW29.71+0.04 63.7 60.8 56.3---
2024-05-27 09:50 pm--- 3.6 5-WNW29.71- 63.9 60.8 56.5---
2024-05-27 09:40 pm--- 3.6 5-WNW29.71- 63.9 60.8 56.3---
2024-05-27 09:30 pm--- 3.3 6-WNW29.70- 63.9 60.8 56.5---
2024-05-27 09:20 pm--- 3.3 6-WNW29.70- 64.0 61.0 56.5---
2024-05-27 09:10 pm--- 3.3 5-WNW29.70- 64.0 61.0 56.5---
2024-05-27 08:50 pm--- 3.6 5-WNW29.69- 64.0 61.0 56.7---
2024-05-27 08:40 pm--- 3.6 5-WNW29.69- 64.0 61.0 56.8---
2024-05-27 08:30 pm--- 3.3 5-WNW29.69- 64.0 61.0 56.8---
2024-05-27 08:20 pm--- 3.6 5-WNW29.69- 64.2 61.0 56.8---
2024-05-27 08:10 pm--- 3.3 5-WNW29.69- 64.2 61.0 57.0---
2024-05-27 08:00 pm--- 3.3 5-WNW29.69+0.07 64.4 61.0 57.2---
2024-05-27 07:50 pm--- 3.3 5-WNW29.69- 64.4 61.0 57.2---
2024-05-27 07:40 pm--- 3.3 5-WNW29.68- 64.4 61.2 57.4---
2024-05-27 07:30 pm--- 3.3 5-WNW29.68- 64.4 61.2 57.9---
2024-05-27 07:20 pm--- 3.3 5-WNW29.67- 64.6 61.2 57.7---
2024-05-27 07:10 pm--- 3.3 5-WNW29.67- 64.0 61.2 58.6---
2024-05-27 07:00 pm--- 3.3 5-WNW29.67+0.08 64.6 61.0 57.6---
2024-05-27 06:50 pm--- 3.6 5-WNW29.66- 64.6 61.0 57.6---
2024-05-27 06:40 pm--- 3.6 6-WNW29.66- 64.6 61.0 57.4---
2024-05-27 06:30 pm--- 3.6 5-WNW29.65- 64.6 61.2 57.6---
2024-05-27 06:20 pm--- 3.6 5-WNW29.65- 64.6 61.2 57.6---
2024-05-27 06:10 pm--- 3.6 5-WNW29.65- 64.2 61.2 57.6---
2024-05-27 06:00 pm--- 3.6 5-WNW29.64+0.08 63.5 61.2 57.4---
2024-05-27 05:50 pm--- 3.9 5-WNW29.64- 63.1 61.2 57.2---
2024-05-27 05:40 pm--- 3.9 5-WNW29.64- 63.3 61.2 57.9---
2024-05-27 05:30 pm--- 3.6 5-WNW29.63- 63.3 61.2 57.7---
2024-05-27 05:20 pm--- 4.3 5- W29.63- 64.9 61.2 58.1---
2024-05-27 05:10 pm--- 4.3 5-WNW29.62- 64.6 61.2 57.4---
2024-05-27 05:00 pm--- 4.3 5-WNW29.62+0.06 64.0 61.2 59.4---
2024-05-27 04:50 pm--- 4.3 5-WNW29.62- 62.6 61.0 59.9---
2024-05-27 04:30 pm--- 3.9 5-WNW29.61- 62.1 61.5 59.7---
2024-05-27 04:20 pm--- 3.9 5-WNW29.60- 63.1 61.5 59.9---
2024-05-27 04:10 pm--- 3.6 5-WNW29.59- 65.5 61.5 59.0---
2024-05-27 04:00 pm--- 3.3 5-WNW29.58+0.03 66.2 61.7 59.5---
2024-05-27 03:50 pm--- 2.3 3- W29.57- 65.7 61.9 59.5---
2024-05-27 03:40 pm--- 2.3 3- W29.57- 65.1 62.1 60.1---
2024-05-27 03:30 pm--- 2.3 3- W29.57- 65.5 62.1 60.4---
2024-05-27 03:20 pm--- 2.3 3- W29.57- 65.7 61.9 60.6---
2024-05-27 03:10 pm--- 2.3 4- W29.56- 65.5 62.1 60.8---
2024-05-27 03:00 pm--- 2.3 4- W29.56+0.02 64.9 62.2 62.4---
2024-05-27 02:40 pm--- 2.0 4- W29.56- 64.8 61.9 62.1---
2024-05-27 02:30 pm--- 2.0 3- W29.56- 64.8 61.9 62.2---
2024-05-27 02:20 pm--- 2.0 3- W29.56- 64.2 61.7 61.9---
2024-05-27 02:10 pm--- 2.0 3- W29.56- 65.8 61.9 61.3---
2024-05-27 02:00 pm--- 2.0 3- W29.56- 66.2 62.1 61.2---
2024-05-27 01:50 pm--- 2.0 2-WSW29.56- 66.0 62.1 61.2---
2024-05-27 01:20 pm--- 1.6 2-WSW29.55- 70.9 62.1 61.2---
2024-05-27 01:10 pm--- 1.3 2-WSW29.54- 70.3 62.1 61.2---
2024-05-27 01:00 pm--- 1.3 2-WSW29.55+0.04 70.0 62.2 61.7---
2024-05-27 12:50 pm--- 1.3 2-WSW29.55- 69.6 62.1 61.7---

Detailed Wave Summary
for 45196 as of (12:40 pm EDT)
1640 GMT on 05/28/2024:

These wave data are displayed in rounded times.

     

Click on the graph icon in the table below to see a time series plot of the last five days of that observation.

5-day plot - Significant Wave Height Significant Wave Height (WVHT): 2.0 ft
Previous observations
TIME
(EDT)
5-day plot - Wave Height
WVHT
ft
5-day plot - Swell Height
SwH
ft
5-day plot - Swell Period
SwP
sec
5-day plot - Swell Direction
SwD
 
5-day plot - Wind Wave Height
WWH
ft
5-day plot - Wind Wave Period
WWP
sec
5-day plot - Wind Wave Direction
WWD
 
5-day plot - Wave Steepness
STEEPNESS
 
5-day plot - Average Wave Period
APD
sec
2024-05-28 12:20 pm 2.0------ N/A-
2024-05-28 11:50 am 2.3------ N/A-
2024-05-28 11:40 am 2.0------ N/A-
2024-05-28 11:30 am 2.3------ N/A-
2024-05-28 11:20 am 2.3------ N/A-
2024-05-28 11:00 am 2.3------ N/A-
2024-05-28 10:50 am 2.3------ N/A-
2024-05-28 10:30 am 2.0------ N/A-
2024-05-28 10:20 am 2.0------ N/A-
2024-05-28 10:10 am 2.0------ N/A-
2024-05-28 10:00 am 2.0------ N/A-
2024-05-28 09:30 am 2.0------ N/A-
2024-05-28 09:20 am 2.3------ N/A-
2024-05-28 09:10 am 2.3------ N/A-
2024-05-28 09:00 am 2.0------ N/A-
2024-05-28 08:50 am 2.3------ N/A-
2024-05-28 08:30 am 2.3------ N/A-
2024-05-28 08:20 am 2.3------ N/A-
2024-05-28 07:50 am 2.6------VERY_STEEP-
2024-05-28 07:40 am 3.3------VERY_STEEP-
2024-05-28 07:20 am 3.3------VERY_STEEP-
2024-05-28 07:10 am 3.3------VERY_STEEP-
2024-05-28 07:00 am 3.3------VERY_STEEP-
2024-05-28 06:40 am 3.3------VERY_STEEP-
2024-05-28 06:10 am 3.3------VERY_STEEP-
2024-05-28 05:40 am 3.0------VERY_STEEP-
2024-05-28 05:30 am 3.0------VERY_STEEP-
2024-05-28 05:20 am 3.0------ STEEP-
2024-05-28 05:00 am 3.3------VERY_STEEP-
2024-05-28 04:50 am 3.3------VERY_STEEP-
2024-05-28 04:40 am 3.3------VERY_STEEP-
2024-05-28 04:30 am 3.3------VERY_STEEP-
2024-05-28 04:20 am 3.3------VERY_STEEP-
2024-05-28 04:00 am 3.3------VERY_STEEP-
2024-05-28 03:50 am 3.3------VERY_STEEP-
2024-05-28 03:20 am 3.3------VERY_STEEP-
2024-05-28 03:10 am 3.3------VERY_STEEP-
2024-05-28 03:00 am 3.6------ STEEP-
2024-05-28 02:50 am 3.6------VERY_STEEP-
2024-05-28 02:30 am 3.3------ STEEP-
2024-05-28 02:10 am 3.3------ STEEP-
2024-05-28 02:00 am 3.3------ STEEP-
2024-05-28 01:50 am 3.3------ STEEP-
2024-05-28 12:50 am 3.3------ STEEP-
2024-05-28 12:40 am 3.3------ STEEP-
2024-05-28 12:30 am 3.3------ STEEP-
2024-05-28 12:20 am 3.6------VERY_STEEP-
2024-05-28 12:10 am 3.0------ STEEP-
2024-05-28 12:00 am 3.3------ STEEP-
2024-05-27 11:50 pm 3.3------VERY_STEEP-
2024-05-27 11:40 pm 3.3------VERY_STEEP-
2024-05-27 11:30 pm 3.3------VERY_STEEP-
2024-05-27 11:10 pm 3.3------VERY_STEEP-
2024-05-27 11:00 pm 3.3------VERY_STEEP-
2024-05-27 10:50 pm 3.3------VERY_STEEP-
2024-05-27 10:40 pm 3.3------ STEEP-
2024-05-27 10:30 pm 3.3------ STEEP-
2024-05-27 10:10 pm 3.3------ STEEP-
2024-05-27 10:00 pm 3.3------ STEEP-
2024-05-27 09:50 pm 3.6------VERY_STEEP-
2024-05-27 09:40 pm 3.6------ STEEP-
2024-05-27 09:30 pm 3.3------ STEEP-
2024-05-27 09:20 pm 3.3------ STEEP-
2024-05-27 09:10 pm 3.3------ STEEP-
2024-05-27 08:50 pm 3.6------VERY_STEEP-
2024-05-27 08:40 pm 3.6------VERY_STEEP-
2024-05-27 08:30 pm 3.3------VERY_STEEP-
2024-05-27 08:20 pm 3.6------VERY_STEEP-
2024-05-27 08:10 pm 3.3------VERY_STEEP-
2024-05-27 08:00 pm 3.3------VERY_STEEP-
2024-05-27 07:50 pm 3.3------VERY_STEEP-
2024-05-27 07:40 pm 3.3------VERY_STEEP-
2024-05-27 07:30 pm 3.3------VERY_STEEP-
2024-05-27 07:20 pm 3.3------VERY_STEEP-
2024-05-27 07:10 pm 3.3------VERY_STEEP-
2024-05-27 07:00 pm 3.3------ STEEP-
2024-05-27 06:50 pm 3.6------VERY_STEEP-
2024-05-27 06:40 pm 3.6------ STEEP-
2024-05-27 06:30 pm 3.6------VERY_STEEP-
2024-05-27 06:20 pm 3.6------VERY_STEEP-
2024-05-27 06:10 pm 3.6------VERY_STEEP-
2024-05-27 06:00 pm 3.6------VERY_STEEP-
2024-05-27 05:50 pm 3.9------VERY_STEEP-
2024-05-27 05:40 pm 3.9------VERY_STEEP-
2024-05-27 05:30 pm 3.6------VERY_STEEP-
2024-05-27 05:20 pm 4.3------VERY_STEEP-
2024-05-27 05:10 pm 4.3------VERY_STEEP-
2024-05-27 05:00 pm 4.3------VERY_STEEP-
2024-05-27 04:50 pm 4.3------VERY_STEEP-
2024-05-27 04:30 pm 3.9------VERY_STEEP-
2024-05-27 04:20 pm 3.9------VERY_STEEP-
2024-05-27 04:10 pm 3.6------VERY_STEEP-
2024-05-27 04:00 pm 3.0------VERY_STEEP-
2024-05-27 03:50 pm 2.3------ N/A-
2024-05-27 03:40 pm 2.3------ N/A-
2024-05-27 03:30 pm 2.3------ N/A-
2024-05-27 03:20 pm 2.3------ N/A-
2024-05-27 03:10 pm 2.3------ N/A-
2024-05-27 03:00 pm 2.3------ N/A-
2024-05-27 02:40 pm 2.0------ N/A-
2024-05-27 02:30 pm 2.0------ N/A-
2024-05-27 02:20 pm 2.0------ N/A-
2024-05-27 02:10 pm 2.0------ N/A-
2024-05-27 02:00 pm 2.0------ N/A-
2024-05-27 01:50 pm 2.0------ N/A-
2024-05-27 01:20 pm 1.6------ N/A-
2024-05-27 01:10 pm 1.3------ N/A-
2024-05-27 01:00 pm 1.3------ N/A-
2024-05-27 12:50 pm 1.3------ N/A-

Ocean Conditions at 45196 as of
(12:40 pm EDT)
1640 GMT on 05/28/2024:

These oceanographic data are displayed in rounded times.

     

Click on the graph icon in the table below to see a time series plot of the last five days of that observation.

Depth (DEPTH): 4.9 ft
5-day plot - Ocean Temperature Ocean Temperature (OTMP):62.96 °F
Previous observations
TIME
(EDT)
DEPTH
ft
5-day plot - Ocean Temperature
OTMP
°F
5-day plot - Conductivity
COND
mS/cm
5-day plot - Salinity
SAL
psu
5-day plot - Oxygen Concentration
O2%
%
5-day plot - Oxygen Concentration
O2PPM
ppm
5-day plot - Chlorophyll
CLCON
ug/l
5-day plot - Turbidity
TURB
FTU
5-day plot - pH
PH
 
5-day plot - Eh
EH
mv
2024-05-28 12:20 pm 4.962.98--------
2024-05-28 11:50 am 4.962.82--------
2024-05-28 11:40 am 4.962.80--------
2024-05-28 11:30 am 4.962.82--------
2024-05-28 11:20 am 4.962.78--------
2024-05-28 11:00 am 4.962.64--------
2024-05-28 10:50 am 4.962.40--------
2024-05-28 10:30 am 4.962.42--------
2024-05-28 10:20 am 4.962.49--------
2024-05-28 10:10 am 4.962.51--------
2024-05-28 10:00 am 4.962.51--------
2024-05-28 09:30 am 4.962.44--------
2024-05-28 09:20 am 4.962.51--------
2024-05-28 09:10 am 4.962.51--------
2024-05-28 09:00 am 4.962.44--------
2024-05-28 08:50 am 4.962.40--------
2024-05-28 08:30 am 4.962.24--------
2024-05-28 08:20 am 4.962.13--------
2024-05-28 07:50 am 4.961.77--------
2024-05-28 07:40 am 4.961.72--------
2024-05-28 07:20 am 4.961.66--------
2024-05-28 07:10 am 4.961.56--------
2024-05-28 07:00 am 4.961.50--------
2024-05-28 06:40 am 4.961.34--------
2024-05-28 06:10 am 4.960.84--------
2024-05-28 05:40 am 4.960.80--------
2024-05-28 05:30 am 4.960.78--------
2024-05-28 05:20 am 4.960.75--------
2024-05-28 05:00 am 4.960.69--------
2024-05-28 04:50 am 4.960.67--------
2024-05-28 04:40 am 4.960.53--------
2024-05-28 04:30 am 4.960.42--------
2024-05-28 04:20 am 4.960.42--------
2024-05-28 04:00 am 4.960.37--------
2024-05-28 03:50 am 4.960.37--------
2024-05-28 03:20 am 4.960.33--------
2024-05-28 03:10 am 4.960.31--------
2024-05-28 03:00 am 4.960.33--------
2024-05-28 02:50 am 4.960.31--------
2024-05-28 02:30 am 4.960.31--------
2024-05-28 02:10 am 4.960.33--------
2024-05-28 02:00 am 4.960.35--------
2024-05-28 01:50 am 4.960.37--------
2024-05-28 12:50 am 4.960.44--------
2024-05-28 12:40 am 4.960.48--------
2024-05-28 12:30 am 4.960.49--------
2024-05-28 12:20 am 4.960.49--------
2024-05-28 12:10 am 4.960.49--------
2024-05-28 12:00 am 4.960.48--------
2024-05-27 11:50 pm 4.960.51--------
2024-05-27 11:40 pm 4.960.51--------
2024-05-27 11:30 pm 4.960.51--------
2024-05-27 11:10 pm 4.960.58--------
2024-05-27 11:00 pm 4.960.62--------
2024-05-27 10:50 pm 4.960.66--------
2024-05-27 10:40 pm 4.960.66--------
2024-05-27 10:30 pm 4.960.69--------
2024-05-27 10:10 pm 4.960.76--------
2024-05-27 10:00 pm 4.960.78--------
2024-05-27 09:50 pm 4.960.84--------
2024-05-27 09:40 pm 4.960.85--------
2024-05-27 09:30 pm 4.960.89--------
2024-05-27 09:20 pm 4.960.91--------
2024-05-27 09:10 pm 4.960.94--------
2024-05-27 08:50 pm 4.961.00--------
2024-05-27 08:40 pm 4.960.94--------
2024-05-27 08:30 pm 4.960.93--------
2024-05-27 08:20 pm 4.960.93--------
2024-05-27 08:10 pm 4.960.96--------
2024-05-27 08:00 pm 4.961.02--------
2024-05-27 07:50 pm 4.961.05--------
2024-05-27 07:40 pm 4.961.09--------
2024-05-27 07:30 pm 4.961.16--------
2024-05-27 07:20 pm 4.961.12--------
2024-05-27 07:10 pm 4.961.14--------
2024-05-27 07:00 pm 4.961.05--------
2024-05-27 06:50 pm 4.961.05--------
2024-05-27 06:40 pm 4.961.07--------
2024-05-27 06:30 pm 4.961.12--------
2024-05-27 06:20 pm 4.961.18--------
2024-05-27 06:10 pm 4.961.16--------
2024-05-27 06:00 pm 4.961.21--------
2024-05-27 05:50 pm 4.961.12--------
2024-05-27 05:40 pm 4.961.12--------
2024-05-27 05:30 pm 4.961.20--------
2024-05-27 05:20 pm 4.961.12--------
2024-05-27 05:10 pm 4.961.16--------
2024-05-27 05:00 pm 4.961.18--------
2024-05-27 04:50 pm 4.961.12--------
2024-05-27 04:30 pm 4.961.48--------
2024-05-27 04:20 pm 4.961.52--------
2024-05-27 04:10 pm 4.961.59--------
2024-05-27 04:00 pm 4.961.70--------
2024-05-27 03:50 pm 4.961.97--------
2024-05-27 03:40 pm 4.962.02--------
2024-05-27 03:30 pm 4.962.04--------
2024-05-27 03:20 pm 4.961.92--------
2024-05-27 03:10 pm 4.962.01--------
2024-05-27 03:00 pm 4.962.19--------
2024-05-27 02:40 pm 4.961.88--------
2024-05-27 02:30 pm 4.961.90--------
2024-05-27 02:20 pm 4.961.86--------
2024-05-27 02:10 pm 4.961.88--------
2024-05-27 02:00 pm 4.961.93--------
2024-05-27 01:50 pm 4.962.11--------
2024-05-27 01:20 pm 4.961.95--------
2024-05-27 01:10 pm 4.962.06--------
2024-05-27 01:00 pm 4.962.17--------
2024-05-27 12:50 pm 4.962.08--------